TimeMDT,TemperatureF,Dew PointF,Humidity,Sea Level PressureIn,VisibilityMPH,Wind Direction,Wind SpeedMPH,Gust SpeedMPH,PrecipitationIn,Events,Conditions,WindDirDegrees,DateUTC
12:15 AM,70.7,58.1,64,30.29,10.0,NNE,3.5,-,N/A,,Clear,30,2013-08-26 06:15:00
12:35 AM,70.2,58.5,66,30.29,10.0,NE,3.5,-,N/A,,Clear,50,2013-08-26 06:35:00
12:55 AM,69.4,58.8,69,30.29,10.0,ENE,5.8,-,N/A,,Clear,60,2013-08-26 06:55:00
1:15 AM,69.8,58.1,66,30.29,10.0,ENE,5.8,-,N/A,,Clear,60,2013-08-26 07:15:00
1:35 AM,69.8,58.3,67,30.29,10.0,ENE,6.9,-,N/A,,Clear,60,2013-08-26 07:35:00
1:55 AM,68.7,58.3,69,30.29,10.0,NE,4.6,-,N/A,,Clear,50,2013-08-26 07:55:00
2:15 AM,67.3,57.2,70,30.29,10.0,ENE,3.5,-,N/A,,Clear,70,2013-08-26 08:15:00
2:35 AM,67.8,57.4,69,30.29,10.0,Calm,Calm,-,N/A,,Clear,0,2013-08-26 08:35:00
2:55 AM,67.5,56.8,69,30.29,10.0,NE,3.5,-,N/A,,Clear,50,2013-08-26 08:55:00
3:15 AM,65.8,57.9,76,30.28,10.0,ENE,4.6,-,N/A,,Clear,60,2013-08-26 09:15:00
3:35 AM,67.1,57.6,71,30.28,10.0,East,4.6,-,N/A,,Clear,80,2013-08-26 09:35:00
3:55 AM,67.3,56.7,69,30.28,10.0,East,3.5,-,N/A,,Clear,100,2013-08-26 09:55:00
4:15 AM,68.4,56.1,65,30.28,10.0,East,3.5,-,N/A,,Clear,100,2013-08-26 10:15:00
4:35 AM,66.6,55.8,68,30.29,10.0,Calm,Calm,-,N/A,,Clear,0,2013-08-26 10:35:00
4:55 AM,64.0,55.9,75,30.29,10.0,Calm,Calm,-,N/A,,Clear,0,2013-08-26 10:55:00
5:15 AM,63.1,55.9,77,30.29,10.0,Calm,Calm,-,N/A,,Clear,0,2013-08-26 11:15:00
5:35 AM,62.4,55.6,78,30.29,10.0,East,3.5,-,N/A,,Clear,80,2013-08-26 11:35:00
5:55 AM,63.3,56.8,79,30.30,10.0,Calm,Calm,-,N/A,,Clear,0,2013-08-26 11:55:00
6:15 AM,62.1,55.9,80,30.30,10.0,North,4.6,-,N/A,,Clear,10,2013-08-26 12:15:00
6:35 AM,61.0,55.6,82,30.30,10.0,NNE,3.5,-,N/A,,Clear,30,2013-08-26 12:35:00
6:55 AM,62.8,57.9,84,30.30,10.0,ENE,4.6,-,N/A,,Clear,60,2013-08-26 12:55:00
7:15 AM,64.0,59.7,86,30.31,10.0,Calm,Calm,-,N/A,,Clear,0,2013-08-26 13:15:00
7:35 AM,66.0,59.9,81,30.31,10.0,Calm,Calm,-,N/A,,Clear,0,2013-08-26 13:35:00
7:55 AM,66.6,57.4,72,30.32,10.0,WNW,3.5,-,N/A,,Clear,300,2013-08-26 13:55:00
8:15 AM,69.1,58.5,69,30.32,10.0,NW,3.5,-,N/A,,Clear,320,2013-08-26 14:15:00
8:35 AM,71.4,58.6,64,30.33,10.0,Calm,Calm,-,N/A,,Clear,0,2013-08-26 14:35:00
8:55 AM,72.5,58.3,61,30.33,10.0,Calm,Calm,-,N/A,,Clear,0,2013-08-26 14:55:00
9:15 AM,74.1,58.3,58,30.33,10.0,Calm,Calm,-,N/A,,Clear,0,2013-08-26 15:15:00
9:35 AM,76.1,57.4,52,30.33,10.0,Calm,Calm,-,N/A,,Clear,0,2013-08-26 15:35:00
9:55 AM,77.4,57.2,50,30.33,10.0,East,3.5,-,N/A,,Clear,90,2013-08-26 15:55:00
10:15 AM,78.4,56.3,46,30.33,10.0,East,4.6,-,N/A,,Clear,100,2013-08-26 16:15:00
10:35 AM,79.7,55.4,43,30.33,10.0,ESE,5.8,-,N/A,,Clear,120,2013-08-26 16:35:00
10:55 AM,81.0,55.0,41,30.33,10.0,SE,6.9,-,N/A,,Clear,140,2013-08-26 16:55:00
11:15 AM,81.7,54.0,38,30.32,10.0,South,5.8,-,N/A,,Clear,190,2013-08-26 17:15:00
11:35 AM,82.4,54.1,38,30.32,10.0,South,6.9,-,N/A,,Clear,190,2013-08-26 17:35:00
11:55 AM,83.7,53.1,35,30.30,10.0,South,5.8,-,N/A,,Clear,180,2013-08-26 17:55:00
12:15 PM,85.3,53.4,33,30.30,10.0,South,9.2,-,N/A,,Clear,180,2013-08-26 18:15:00
12:35 PM,84.9,52.9,33,30.29,10.0,SSW,6.9,-,N/A,,Scattered Clouds,210,2013-08-26 18:35:00
12:55 PM,86.9,52.9,31,30.28,10.0,Calm,Calm,-,N/A,,Scattered Clouds,0,2013-08-26 18:55:00
1:15 PM,87.1,51.3,29,30.28,10.0,SE,12.7,17.3,N/A,,Scattered Clouds,140,2013-08-26 19:15:00
1:35 PM,87.1,50.7,29,30.27,10.0,SE,4.6,-,N/A,,Scattered Clouds,140,2013-08-26 19:35:00
1:55 PM,88.0,52.2,29,30.26,10.0,SE,11.5,17.3,N/A,,Scattered Clouds,130,2013-08-26 19:55:00
2:15 PM,87.6,51.3,29,30.26,10.0,SE,8.1,-,N/A,,Scattered Clouds,130,2013-08-26 20:15:00
2:35 PM,88.0,51.4,28,30.25,10.0,East,9.2,-,N/A,,Scattered Clouds,100,2013-08-26 20:35:00
2:55 PM,89.2,51.8,28,30.24,10.0,ESE,8.1,-,N/A,,Scattered Clouds,110,2013-08-26 20:55:00
3:15 PM,89.6,51.6,27,30.23,10.0,SE,5.8,-,N/A,,Scattered Clouds,130,2013-08-26 21:15:00
3:35 PM,89.8,53.2,29,30.22,10.0,ENE,12.7,-,N/A,,Mostly Cloudy,60,2013-08-26 21:35:00
3:55 PM,87.6,52.2,30,30.21,10.0,ESE,5.8,10.4,N/A,,Scattered Clouds,110,2013-08-26 21:55:00
4:15 PM,87.3,52.0,30,30.21,10.0,SE,6.9,-,N/A,,Scattered Clouds,130,2013-08-26 22:15:00
4:35 PM,79.0,62.2,56,30.22,10.0,ESE,23.0,31.1,N/A,Rain,Rain,120,2013-08-26 22:35:00
4:55 PM,75.6,62.1,63,30.22,7.0,SSE,8.1,-,0.02,Rain,Light Rain,160,2013-08-26 22:55:00
5:15 PM,77.7,58.8,52,30.21,10.0,South,9.2,-,N/A,,Overcast,190,2013-08-26 23:15:00
5:35 PM,80.8,54.5,40,30.20,10.0,SSW,8.1,-,N/A,,Scattered Clouds,200,2013-08-26 23:35:00
5:55 PM,81.9,52.5,36,30.19,10.0,SSW,8.1,-,N/A,,Scattered Clouds,200,2013-08-26 23:55:00
6:15 PM,82.2,53.1,36,30.19,10.0,SSE,9.2,-,N/A,,Mostly Cloudy,160,2013-08-27 00:15:00
6:35 PM,80.6,55.4,42,30.19,10.0,SE,8.1,-,N/A,,Mostly Cloudy,130,2013-08-27 00:35:00
6:55 PM,79.2,55.6,44,30.18,10.0,SSE,8.1,-,N/A,,Scattered Clouds,150,2013-08-27 00:55:00
7:15 PM,77.4,57.4,50,30.18,10.0,SSE,3.5,-,N/A,,Clear,150,2013-08-27 01:15:00
7:35 PM,77.4,57.7,51,30.18,10.0,Calm,Calm,-,N/A,,Scattered Clouds,0,2013-08-27 01:35:00
7:55 PM,76.3,57.9,53,30.19,10.0,SE,3.5,-,N/A,,Clear,140,2013-08-27 01:55:00
8:15 PM,74.7,59.2,58,30.18,10.0,Calm,Calm,-,N/A,,Clear,0,2013-08-27 02:15:00
8:35 PM,73.8,60.4,63,30.19,10.0,ESE,3.5,-,N/A,,Clear,110,2013-08-27 02:35:00
8:55 PM,73.9,59.5,61,30.20,10.0,ESE,6.9,-,N/A,,Clear,120,2013-08-27 02:55:00
9:15 PM,72.7,60.1,64,30.21,10.0,ESE,3.5,-,N/A,,Clear,110,2013-08-27 03:15:00
9:35 PM,70.5,60.6,71,30.21,10.0,ESE,3.5,-,N/A,,Clear,110,2013-08-27 03:35:00
9:55 PM,73.4,57.7,58,30.22,10.0,East,6.9,-,N/A,,Clear,100,2013-08-27 03:55:00
10:15 PM,73.4,57.4,57,30.22,10.0,ESE,4.6,-,N/A,,Clear,120,2013-08-27 04:15:00
10:35 PM,71.6,57.7,62,30.23,10.0,ESE,6.9,-,N/A,,Clear,120,2013-08-27 04:35:00
10:55 PM,71.4,56.5,59,30.23,10.0,SE,5.8,-,N/A,,Clear,130,2013-08-27 04:55:00
11:15 PM,70.7,55.8,59,30.23,10.0,South,8.1,-,N/A,,Clear,170,2013-08-27 05:15:00
11:35 PM,68.9,55.4,62,30.23,10.0,SSE,3.5,-,N/A,,Clear,150,2013-08-27 05:35:00
11:55 PM,68.4,56.3,65,30.23,10.0,SE,3.5,-,N/A,,Clear,140,2013-08-27 05:55:00